Regional Weather Roundup
Issued by NWS

Home | Current Version | Previous Version | Graphics & Text | Print | Product List | Glossary On
Versions: 1 2 3 4 5 6 7 8 9 10 11 12 13 14 15 16 17 18 19 20 21 22 23 24 25 26 27 28 29 30 31 32 33 34 35 36 37 38 39 40 41 42 43 44 45 46 47 48 49 50
008
ASUS44 KJAN 310810
RWRMS

MISSISSIPPI HOURLY WEATHER ROUNDUP
NATIONAL WEATHER SERVICE JACKSON MS
300 AM CDT TUE MAR 31 2015

NOTE: "FAIR: INDICATES FEW OR NO CLOUDS BELOW 12,000 FEET WITH NO
SIGNIFICANT WEATHER AND/OR OBSTRUCTIONS TO VISIBILITY.

MSZ001>002-007>008-010>013-018>021-025>028-034>036-310900-
NORTHWEST MISSISSIPPI

CITY           SKY/WX    TMP DP  RH WIND       PRES   REMARKS
CLARKSDALE       N/A     57  54  88 SE3       30.03F
CLEVELAND      FAIR      60  55  83 S6        30.02F
GREENWOOD      CLEAR     55  50  83 CALM      30.04F
GREENVILLE     NOT AVBL
OLIVE BRANCH   CLEAR     50  48  93 S6        30.02F
OXFORD         FAIR      48  45  87 CALM      30.04F
TUNICA         SUNNY     52  50  93 SE3       30.03F
$$

MSZ003>006-009-014>017-022>024-029>033-037>039-310900-
NORTHEAST MISSISSIPPI

CITY           SKY/WX    TMP DP  RH WIND       PRES   REMARKS
COLUMBUS AFB   CLEAR     50  49  99 CALM      30.05F
CORINTH        FAIR      46  45  93 S5        30.03F
GOLDN TRIANGLE CLEAR     54  48  82 CALM      30.05F
STARKVILLE     FAIR      50  48  93 CALM      30.06F
TUPELO         CLEAR     50  47  89 CALM      30.04F
$$

MSZ040-058-310900-
CENTRAL MISSISSIPPI

CITY           SKY/WX    TMP DP  RH WIND       PRES   REMARKS
JACKSON INTL   CLEAR     62  57  83 S7        30.07F
JACKSON HAWKNS CLEAR     63  56  78 SW6       30.07F
MERIDIAN KEY   CLEAR     55  54  96 S3        30.07F FOG
MERIDIAN NAS   NOT AVBL
RAYMOND        FAIR      63  57  82 MISG      30.07F
VICKSBURG      CLEAR     65  57  75 SW5       30.06F
$$

MSZ059>079-310900-
SOUTH MISSISSIPPI

CITY           SKY/WX    TMP DP  RH WIND       PRES   REMARKS
BROOKHAVEN       N/A     63  59  88 S3        30.11F
HATTIESBURG    CLEAR     66  60  81 SW8       30.10F
MCCOMB         CLEAR     61  58  90 CALM      30.10F
NATCHEZ        CLEAR     63  57  82 S5        30.09F
PINE BELT      CLEAR     59  54  82 SW3       30.09F
$$

MSZ080>082-310900-
COASTAL MISSISSIPPI

CITY           SKY/WX    TMP DP  RH WIND       PRES   REMARKS
BILOXI         CLEAR     67  64  90 W6        30.11F
PASCAGOULA     CLEAR     66  64  93 SW5       30.11F
GULFPORT       CLEAR     66  62  87 W3        30.11F
$$



USA.gov is the U.S. government's official web portal to all federal, state and local government web resources and services.